Regional Weather Roundup
Issued by NWS

Home | Current Version | Previous Version | Graphics & Text | Print | Product List | Glossary Off
Versions: 1 2 3 4 5 6 7 8 9 10 11 12 13 14 15 16 17 18 19 20 21 22 23 24 25 26 27 28 29 30 31 32 33 34 35 36 37 38 39 40 41 42 43 44 45 46 47 48 49 50

000
ASUS43 KLSX 031057
RWRMO

WEATHER SUMMARY FOR MISSOURI
NATIONAL WEATHER SERVICE SPRINGFIELD MO
500 AM CST SAT DEC 03 2016

NOTE: "FAIR" INDICATES FEW OR NO CLOUDS BELOW 12,000 FEET WITH NO
       SIGNIFICANT WEATHER AND/OR OBSTRUCTIONS TO VISIBILITY.
       CURRENT SKY AND/OR WEATHER CONDITIONS ARE NOT AVAILABLE FOR
       CHILLICOTHE AND FARMINGTON.

MOZ001>031-035>038-043-044-053-054-031200-
...NORTHERN AND WESTERN MISSOURI...

CITY           SKY/WX    TMP DP  RH WIND       PRES   REMARKS
KANSAS CTY INT PTCLDY    29  25  85 NE5       30.30F WCI  24
LEE`S SUMMIT   PTCLDY    33  28  81 E5        30.30F WCI  29
ST JOSEPH      PTCLDY    24  23  96 CALM      30.33F
CHILLICOTHE      N/A     26  24  92 CALM      30.34F

$$
MOZ066>068-077>081-088>096-101>105-031200-
...SOUTHWEST MISSOURI...

CITY           SKY/WX    TMP DP  RH WIND       PRES   REMARKS
SPRINGFIELD    CLOUDY    44  26  49 E7        30.26F
JOPLIN         CLOUDY    45  29  53 E7        30.25F

$$
MOZ032>034-039>042-045>050-055>058-069>072-031200-
...CENTRAL MISSOURI...

CITY           SKY/WX    TMP DP  RH WIND       PRES   REMARKS
COLUMBIA       NOT AVBL
JEFFERSON CITY CLOUDY    27  24  89 CALM      30.35R
ROLLA          PTCLDY    34  29  82 E7        30.29F WCI  28
SEDALIA        CLOUDY    32  26  78 NE5       30.32F WCI  27
WARRENSBURG    MOCLDY    30  27  86 CALM      30.32S

$$
MOZ051-052-059>065-031200-
...EAST CENTRAL MISSOURI...

CITY           SKY/WX    TMP DP  RH WIND       PRES   REMARKS
ST LOUIS INTL  MOCLDY    33  27  78 CALM      30.36R

$$
MOZ072>076-082>087-097>100-106>115-031200-
...SOUTH CENTRAL AND SOUTHEAST MISSOURI...

CITY           SKY/WX    TMP DP  RH WIND       PRES   REMARKS
CAPE GIRARDEAU CLOUDY    34  31  88 NE3       30.36S
POPLAR BLUFF   MOCLDY    39  33  79 NE3       30.35R
WEST PLAINS    CLOUDY    40  30  67 E5        30.32R

$$



USA.gov is the U.S. government's official web portal to all federal, state and local government web resources and services.